#datint,netname,site,siteID,timestamp,IntT,BattV,AirT2,AirT,AirT_Avg,AirT_Max,AirT_Min,RH_Avg,RH_Max,RH_Min,EA_Avg,Td_Avg,Td_Max,Td_Min,WindS_Smp,WindS_Avg,WindD_Avg,WindD_SD,WindS_Max,ETo,ETr,SoilT4,SoilT8,SoilVWC8,SolarW_Avg,wetstate_Avg,wetT_Avg,Precip_accum,Precip_WPG,Precip_TB
15min,AgWx,beryljct,423,28JAN2020:00:00:00,27.0,12.85,25.5,26.0,26.4,27.1,25.6,78,80,77,0.370,20.5,21.0,19.8,3.858,4.2,302,6.0,5.2,-0.00003,-0.00003,35.1,35.4,20,0,.,.,8.55,0.00,0.00
15min,AgWx,beryljct,423,28JAN2020:00:15:00,26.5,12.84,24.3,23.8,25.0,26.7,23.6,80,82,77,0.358,19.6,20.9,18.8,2.214,2.9,328,11,3.9,-0.00007,-0.00007,35.0,35.4,20,0,.,.,8.55,0.00,0.00
15min,AgWx,beryljct,423,28JAN2020:00:30:00,25.8,12.84,23.1,22.7,23.3,24.1,22.3,83,86,81,0.356,18.9,19.5,18.2,0,1.1,335,0.8,2.5,-0.00013,-0.00018,34.9,35.4,20,0,.,.,8.55,0.00,0.00
15min,AgWx,beryljct,423,28JAN2020:00:45:00,24.9,12.82,22.6,22.2,22.3,22.8,21.8,85,86,85,0.352,18.5,19.1,18.0,2.039,1.8,336,3.8,2.6,-0.00011,-0.00014,34.9,35.4,20,0,.,.,8.55,0.00,0.00
15min,AgWx,beryljct,423,28JAN2020:01:00:00,24.2,12.83,21.9,21.3,22.0,23.9,21.1,85,88,82,0.343,18.3,20.1,16.9,0,0.8,347,2.6,2.4,-0.00015,-0.00020,34.8,35.4,20,0,.,.,8.55,0.00,0.00
15min,AgWx,beryljct,423,28JAN2020:01:15:00,23.5,12.81,22.6,21.7,21.5,22.2,20.9,87,88,86,0.348,18.2,19.2,17.5,1.732,1.8,152,31,4.1,-0.00011,-0.00013,34.7,35.3,20,0,.,.,8.55,0.00,0.00
15min,AgWx,beryljct,423,28JAN2020:01:30:00,23.0,12.81,22.1,21.7,21.6,22.1,20.7,87,88,85,0.346,18.3,18.8,16.9,2.894,3.3,159,17,4.7,-0.00007,-0.00008,34.7,35.3,20,0,.,.,8.55,0.00,0.00
15min,AgWx,beryljct,423,28JAN2020:01:45:00,22.7,12.79,21.8,21.9,22.2,23.1,21.4,86,88,83,0.343,18.6,19.5,17.5,1.863,1.6,180,4.1,3.6,-0.00011,-0.00014,34.6,35.3,20,0,.,.,8.55,0.00,0.00
15min,AgWx,beryljct,423,28JAN2020:02:00:00,22.4,12.79,20.7,20.7,20.8,22.2,20.1,87,89,84,0.338,17.5,18.7,16.7,2.609,3.1,161,14,4.6,-0.00007,-0.00008,34.5,35.3,20,0,.,.,8.56,0.00,0.00
15min,AgWx,beryljct,423,28JAN2020:02:15:00,22.0,12.77,20.2,19.9,19.8,20.7,19.4,89,90,87,0.331,17.0,17.7,16.5,1.25,2.3,131,18,4.7,-0.00009,-0.00011,34.5,35.3,20,0,.,.,8.55,0.00,0.00
15min,AgWx,beryljct,423,28JAN2020:02:30:00,21.6,12.78,19.2,19.1,19.5,20.0,19.1,89,90,89,0.319,16.9,17.5,16.4,3.223,2.9,143,20,5.0,-0.00008,-0.00009,34.4,35.3,20,0,.,.,8.56,0.01,0.00
15min,AgWx,beryljct,423,28JAN2020:02:45:00,21.2,12.76,19.7,18.9,18.8,19.2,18.5,90,91,89,0.320,16.3,16.7,16.1,5.174,3.6,186,12,5.2,-0.00007,-0.00007,34.4,35.3,20,0,.,.,8.56,0.00,0.00
15min,AgWx,beryljct,423,28JAN2020:03:00:00,20.9,12.75,19.4,19.2,19.4,19.7,18.9,90,91,89,0.321,16.9,17.2,16.5,1.578,3.4,189,1.9,5.1,-0.00007,-0.00008,34.3,35.3,20,0,.,.,8.56,0.00,0.00
15min,AgWx,beryljct,423,28JAN2020:03:15:00,20.7,12.75,18.8,18.7,19.3,20.0,18.7,89,90,88,0.312,16.7,17.6,15.9,1.315,1.4,247,52,2.5,-0.00012,-0.00015,34.3,35.3,20,0,.,.,8.56,0.00,0.00
15min,AgWx,beryljct,423,28JAN2020:03:30:00,20.4,12.74,18.9,18.6,18.7,19.1,18.2,89,90,89,0.311,16.0,16.7,15.4,0.088,1.3,311,9.6,2.8,-0.00012,-0.00016,34.2,35.3,20,0,.,.,8.56,0.00,0.00
15min,AgWx,beryljct,423,28JAN2020:03:45:00,20.0,12.73,18.6,18.6,18.9,19.6,18.4,89,91,88,0.311,16.2,17.3,15.5,0.636,0.2,319,0.0,0.6,-0.00017,-0.00026,34.1,35.2,20,0,.,.,8.56,0.00,0.00
15min,AgWx,beryljct,423,28JAN2020:04:00:00,19.6,12.73,17.7,17.7,18.5,19.4,17.7,89,91,89,0.299,15.9,17.2,15.0,2.346,0.7,322,44,3.1,-0.00014,-0.00020,34.1,35.2,20,0,.,.,8.56,0.00,0.00
15min,AgWx,beryljct,423,28JAN2020:04:15:00,19.3,12.72,18.4,17.6,17.9,18.6,17.4,90,90,89,0.303,15.4,16.3,14.6,1.03,1.8,127,45,3.4,-0.00010,-0.00012,34.1,35.2,20,0,.,.,8.56,0.00,0.00
15min,AgWx,beryljct,423,28JAN2020:04:30:00,19.0,12.71,18.3,18.0,18.4,19.4,17.6,90,91,88,0.307,16.0,17.1,14.6,0,0.3,174,8.5,1.2,-0.00015,-0.00023,34.0,35.2,20,0,.,.,8.56,0.00,0.00
15min,AgWx,beryljct,423,28JAN2020:04:45:00,18.6,12.69,17.8,17.5,17.7,18.1,17.4,90,91,90,0.299,15.4,15.8,14.9,0.153,0.2,185,17,1.1,-0.00016,-0.00025,34.0,35.2,20,0,.,.,8.56,0.00,0.00
15min,AgWx,beryljct,423,28JAN2020:05:00:00,18.3,12.7,19.7,19.0,18.0,19.0,16.8,91,92,89,0.323,15.7,16.9,14.1,2.872,0.8,267,31,3.1,-0.00013,-0.00019,33.9,35.2,20,0,.,.,8.56,0.00,0.00
15min,AgWx,beryljct,423,28JAN2020:05:15:00,18.2,12.68,19.2,18.7,18.3,19.1,17.6,91,92,90,0.319,16.0,16.9,15.1,0,1.7,314,0.1,3.2,-0.00010,-0.00013,33.9,35.2,20,0,.,.,8.56,0.00,0.00
15min,AgWx,beryljct,423,28JAN2020:05:30:00,18.1,12.68,17.3,17.5,18.1,18.8,17.5,91,91,90,0.299,15.8,16.6,15.0,2.148,1.7,157,20,3.0,-0.00010,-0.00013,33.8,35.2,20,0,.,.,8.56,0.00,0.00
15min,AgWx,beryljct,423,28JAN2020:05:45:00,17.9,12.67,19.4,18.7,17.6,18.7,17.2,91,92,90,0.322,15.4,16.7,14.8,0.482,0.8,141,6.0,2.2,-0.00013,-0.00018,33.8,35.1,20,0,.,.,8.56,0.00,0.00
15min,AgWx,beryljct,423,28JAN2020:06:00:00,17.9,12.67,18.7,17.8,18.6,19.5,17.5,91,92,89,0.305,16.2,17.3,14.9,3.683,1.3,165,11,4.4,-0.00012,-0.00016,33.8,35.1,20,0,.,.,8.56,0.00,0.00
15min,AgWx,beryljct,423,28JAN2020:06:15:00,18.0,12.67,19.2,19.0,17.8,19.1,17.1,91,92,90,0.323,15.6,17.0,14.7,2.894,3.8,166,13,6.1,-0.00006,-0.00007,33.7,35.1,20,0,.,.,8.56,0.00,0.00
15min,AgWx,beryljct,423,28JAN2020:06:30:00,18.1,12.66,17.6,17.4,17.7,19.0,17.1,90,91,89,0.299,15.2,16.7,14.4,1.535,2.1,138,12,2.9,-0.00009,-0.00011,33.7,35.1,20,0,.,.,8.56,0.00,0.00
15min,AgWx,beryljct,423,28JAN2020:06:45:00,17.8,12.66,17.8,17.1,16.7,17.5,16.3,90,91,89,0.297,14.3,15.1,13.8,1.447,0.6,128,1.4,1.5,-0.00014,-0.00019,33.7,35.1,20,0,.,.,8.56,0.01,0.00
15min,AgWx,beryljct,423,28JAN2020:07:00:00,17.5,12.65,16.5,15.9,15.9,17.4,15.3,90,91,88,0.282,13.4,15.1,12.6,0,1.9,351,56,3.0,0.00002,0.00004,33.6,35.1,20,0,.,.,8.56,0.00,0.00
15min,AgWx,beryljct,423,28JAN2020:07:15:00,17.1,12.64,14.9,14.8,15.4,16.0,14.8,90,91,89,0.265,12.9,13.7,12.2,2.455,1.4,338,2.3,2.6,0.00002,0.00003,33.6,35.0,20,0,.,.,8.56,0.00,0.00
15min,AgWx,beryljct,423,28JAN2020:07:30:00,16.7,12.62,16.8,15.7,15.2,15.7,14.7,90,91,89,0.280,12.9,13.5,12.1,3.179,3.4,336,4.2,5.3,0.00004,0.00006,33.6,35.0,20,1,.,.,8.56,0.00,0.00
15min,AgWx,beryljct,423,28JAN2020:07:45:00,16.4,12.65,15.3,15.1,15.2,16.0,14.5,91,92,90,0.273,13.0,14.0,12.2,0,1.3,339,2.4,3.2,0.00003,0.00004,33.5,35.0,20,4,.,.,8.56,0.00,0.00
15min,AgWx,beryljct,423,28JAN2020:08:00:00,16.4,12.85,16.6,16.2,15.9,16.7,15.0,91,92,91,0.287,13.8,14.9,12.8,2.302,1.1,212,70,3.2,0.00009,0.00010,33.5,35.0,20,26,.,.,8.56,0.00,0.00
15min,AgWx,beryljct,423,28JAN2020:08:15:00,17.0,13.31,18.0,17.7,16.8,17.7,16.1,91,91,90,0.303,14.6,15.3,13.9,3.398,3.2,180,4.4,4.0,0.00018,0.00021,33.5,35.0,20,67,.,.,8.56,0.00,0.00
15min,AgWx,beryljct,423,28JAN2020:08:30:00,18.5,14.88,20.6,20.0,18.7,20.0,17.6,90,91,89,0.332,16.3,17.5,15.3,4.121,3.1,166,4.1,4.6,0.00028,0.00032,33.4,35.0,20,114,.,.,8.56,0.00,0.00
15min,AgWx,beryljct,423,28JAN2020:08:45:00,20.6,14.91,23.8,23.4,21.6,23.4,20.0,89,90,88,0.379,18.9,20.5,17.4,4.604,4.4,169,6.1,5.7,0.00041,0.00047,33.4,35.0,20,172,.,.,8.55,0.00,0.00
15min,AgWx,beryljct,423,28JAN2020:09:00:00,23.5,14.85,26.1,25.7,24.5,25.7,23.4,87,88,86,0.405,21.2,22.3,20.4,4.801,4.6,160,6.5,5.8,0.00057,0.00065,33.4,35.0,20,219,.,.,8.55,0.00,0.00
15min,AgWx,beryljct,423,28JAN2020:09:15:00,25.7,14.83,28.6,28.3,26.8,28.3,25.7,84,86,81,0.427,22.5,23.3,22.0,4.319,4.6,175,12,6.2,0.00058,0.00068,33.3,35.0,20,185,.,.,8.56,0.00,0.00
15min,AgWx,beryljct,423,28JAN2020:09:30:00,28.0,14.81,29.7,30.0,29.4,30.1,28.3,77,81,74,0.416,23.1,23.6,22.6,2.872,3.0,187,9.9,4.1,0.00082,0.00094,33.3,34.9,20,242,.,.,8.55,0.00,0.00
15min,AgWx,beryljct,423,28JAN2020:09:45:00,29.8,14.78,30.9,30.7,30.2,30.7,29.9,74,75,73,0.435,23.0,23.7,22.3,2.28,2.2,157,15,3.4,0.00084,0.00095,33.3,34.9,20,233,.,.,8.55,0.00,0.00
15min,AgWx,beryljct,423,28JAN2020:10:00:00,32.1,14.71,32.0,32.5,31.4,32.9,30.5,74,77,69,0.435,24.0,24.6,23.2,0,0.9,98,17,2.6,0.00128,0.00139,33.2,34.9,21,367,.,.,8.55,0.00,0.00
15min,AgWx,beryljct,423,28JAN2020:10:15:00,35.0,14.69,34.3,33.4,32.7,33.4,32.1,71,72,69,0.447,24.3,25.1,23.4,3.486,1.7,21,23,5.4,0.00136,0.00151,33.2,34.9,20,376,.,.,8.55,0.00,0.00
15min,AgWx,beryljct,423,28JAN2020:10:30:00,37.1,14.74,33.9,34.1,34.0,34.3,33.4,67,69,66,0.443,24.3,24.9,23.8,6.072,4.9,339,10,7.0,0.00140,0.00165,33.2,34.9,20,378,.,.,8.55,0.00,0.00
15min,AgWx,beryljct,423,28JAN2020:10:45:00,38.0,14.65,34.4,34.5,34.3,34.7,33.9,66,68,65,0.440,24.1,25.2,23.3,3.573,4.4,345,12,6.3,0.00133,0.00157,33.2,34.9,20,340,.,.,8.55,0.00,0.00
15min,AgWx,beryljct,423,28JAN2020:11:00:00,39.1,14.24,36.6,36.1,35.3,36.1,34.4,64,66,62,0.444,24.2,24.8,23.8,4.143,3.8,360,19,6.4,0.00183,0.00211,33.2,34.8,20,493,.,.,8.55,0.00,0.00
15min,AgWx,beryljct,423,28JAN2020:11:15:00,40.8,14.22,37.3,37.6,37.2,37.7,36.1,59,62,57,0.440,24.2,25.1,23.4,3.529,3.2,355,19,5.5,0.00183,0.00211,33.2,34.8,20,452,.,.,8.55,0.00,0.00
15min,AgWx,beryljct,423,28JAN2020:11:30:00,42.0,14.19,39.2,38.7,38.2,39.1,37.4,57,58,55,0.441,24.1,24.7,23.4,1.841,1.7,57,33,4.2,0.00178,0.00200,33.2,34.8,20,425,.,.,8.55,0.00,0.00
15min,AgWx,beryljct,423,28JAN2020:11:45:00,43.1,14.14,40.0,39.1,39.1,39.4,38.8,56,57,55,0.447,24.6,25.3,23.9,3.727,2.8,112,26,4.8,0.00191,0.00219,33.1,34.8,20,450,.,.,8.55,0.00,0.00
15min,AgWx,beryljct,423,28JAN2020:12:00:00,44.1,14.13,40.8,41.0,40.0,41.0,39.1,55,56,54,0.470,25.0,25.9,24.4,3.551,3.8,146,17,7.0,0.00198,0.00233,33.1,34.8,20,454,.,.,8.55,0.00,0.00
15min,AgWx,beryljct,423,28JAN2020:12:15:00,44.4,14.14,42.4,41.7,41.1,41.8,40.5,53,54,52,0.473,25.4,26.2,24.7,6.379,5.2,151,13,7.4,0.00176,0.00218,33.1,34.8,20,368,.,.,8.54,0.00,0.00
15min,AgWx,beryljct,423,28JAN2020:12:30:00,44.9,14.11,45.8,44.8,42.9,44.8,41.7,51,53,48,0.489,26.1,27.1,25.4,4.626,5.3,158,19,7.2,0.00246,0.00294,33.1,34.8,20,560,.,.,8.54,0.00,0.00
15min,AgWx,beryljct,423,28JAN2020:12:45:00,46.5,14.06,44.6,44.1,44.3,44.8,43.8,48,49,47,0.471,26.0,26.7,25.5,6.182,5.4,145,16,7.3,0.00203,0.00252,33.1,34.8,20,399,.,.,8.54,0.00,0.00
15min,AgWx,beryljct,423,28JAN2020:13:00:00,46.9,14.08,45.1,45.0,44.7,45.1,44.1,47,49,46,0.470,25.8,26.7,25.4,6.072,6.1,137,11,8.1,0.00162,0.00214,33.1,34.8,20,262,.,.,8.54,0.00,0.00
15min,AgWx,beryljct,423,28JAN2020:13:15:00,47.1,14.08,46.4,46.1,45.7,46.2,45.0,46,47,45,0.483,26.2,26.8,25.7,6.511,6.3,151,11,8.4,0.00154,0.00209,33.1,34.7,20,224,.,.,8.54,0.00,0.00
15min,AgWx,beryljct,423,28JAN2020:13:30:00,47.1,13.67,46.8,46.4,46.1,46.4,45.8,45,46,44,0.479,26.0,26.4,25.5,5.261,6.4,159,7.3,9.3,0.00139,0.00195,33.1,34.7,20,172,.,.,8.54,0.00,0.00
15min,AgWx,beryljct,423,28JAN2020:13:45:00,47.5,14.07,47.5,47.6,47.1,47.6,46.4,43,45,42,0.470,25.8,26.4,25.2,9.03,7.5,156,8.9,10.4,0.00175,0.00241,33.1,34.7,20,259,.,.,8.53,0.00,0.00
15min,AgWx,beryljct,423,28JAN2020:14:00:00,48.4,14.02,48.6,48.5,48.2,48.5,47.5,41,42,40,0.463,25.5,26.3,25.1,4.998,6.0,170,11,8.1,0.00191,0.00253,33.1,34.7,20,322,.,.,8.53,0.00,0.00
15min,AgWx,beryljct,423,28JAN2020:14:15:00,49.7,14.01,50.0,50.1,49.6,50.2,48.4,39,41,37,0.462,25.6,26.8,24.8,2.302,4.1,185,41,7.3,0.00232,0.00285,33.1,34.7,20,462,.,.,8.53,0.00,0.00
15min,AgWx,beryljct,423,28JAN2020:14:30:00,51.4,13.97,50.4,50.5,50.1,50.5,49.6,36,38,35,0.465,24.1,25.5,23.1,8.57,4.8,293,23,8.6,0.00206,0.00265,33.1,34.7,20,390,.,.,8.53,0.00,0.00
15min,AgWx,beryljct,423,28JAN2020:14:45:00,52.0,14.02,49.9,50.1,50.2,50.5,49.9,37,39,36,0.460,25.2,26.8,24.4,6.116,5.4,288,18,9.7,0.00173,0.00235,33.0,34.7,20,290,.,.,8.52,0.00,0.00
15min,AgWx,beryljct,423,28JAN2020:15:00:00,52.0,14,49.8,49.8,49.9,50.2,49.7,38,39,36,0.468,25.0,25.9,24.1,7.3,5.5,284,16,9.7,0.00154,0.00214,33.0,34.7,20,247,.,.,8.52,0.00,0.00
15min,AgWx,beryljct,423,28JAN2020:15:15:00,51.5,13.99,49.3,49.3,49.5,49.8,49.3,38,39,37,0.462,25.2,25.8,24.4,7.432,5.3,270,11,10.1,0.00130,0.00187,33.1,34.7,20,197,.,.,8.53,0.00,0.00
15min,AgWx,beryljct,423,28JAN2020:15:30:00,51.0,14.04,49.9,49.5,49.4,49.6,49.2,38,39,37,0.455,25.0,25.8,24.2,3.683,5.4,253,15,7.7,0.00124,0.00181,33.1,34.6,20,225,.,.,8.52,0.00,0.00
15min,AgWx,beryljct,423,28JAN2020:15:45:00,50.9,14,50.1,50.2,49.9,50.3,49.5,38,40,37,0.478,25.5,26.3,24.7,6.357,5.8,270,15,9.1,0.00157,0.00219,33.2,34.6,20,284,.,.,8.52,0.00,0.00
15min,AgWx,beryljct,423,28JAN2020:16:00:00,51.1,14,49.9,50.0,49.9,50.2,49.6,38,40,37,0.472,25.3,26.5,24.4,5.196,5.2,292,15,9.9,0.00151,0.00209,33.3,34.6,20,280,.,.,8.52,0.00,0.00
15min,AgWx,beryljct,423,28JAN2020:16:15:00,51.9,13.97,50.3,50.5,50.3,50.8,49.8,37,38,36,0.447,24.8,25.8,24.1,4.976,4.2,289,38,7.4,0.00172,0.00225,33.4,34.6,20,333,.,.,8.52,0.00,0.00
15min,AgWx,beryljct,423,28JAN2020:16:30:00,52.9,13.91,49.9,50.0,50.5,50.8,50.0,37,38,36,0.451,25.1,25.9,24.3,7.87,5.5,272,19,8.6,0.00146,0.00208,33.5,34.6,20,260,.,.,8.52,0.00,0.00
15min,AgWx,beryljct,423,28JAN2020:16:45:00,53.1,13.94,49.6,49.7,49.8,50.0,49.7,37,37,35,0.432,24.5,25.0,23.5,3.244,4.9,274,13,7.2,0.00112,0.00166,33.7,34.6,20,203,.,.,8.52,0.00,0.00
15min,AgWx,beryljct,423,28JAN2020:17:00:00,52.0,14.01,47.3,47.7,48.6,49.7,47.7,37,39,36,0.425,23.8,24.4,23.1,4.867,4.7,272,13,5.8,0.00035,0.00048,33.8,34.6,20,50,.,.,8.52,0.00,0.00
15min,AgWx,beryljct,423,28JAN2020:17:15:00,49.8,13.22,45.3,45.5,46.4,47.6,45.4,41,43,38,0.438,23.9,24.3,23.1,4.297,4.6,260,9.2,5.6,0.00033,0.00044,33.9,34.6,20,58,.,.,8.52,0.00,0.00
15min,AgWx,beryljct,423,28JAN2020:17:30:00,47.3,13.15,45.1,44.7,44.1,45.8,42.5,45,48,42,0.433,23.9,24.4,23.6,3.639,3.4,297,25,4.5,0.00017,0.00025,34.1,34.6,20,29,.,.,8.52,0.00,0.00
15min,AgWx,beryljct,423,28JAN2020:17:45:00,45.2,13.11,40.8,42.3,43.5,44.8,42.3,46,50,43,0.460,24.2,25.8,23.5,3.924,3.3,302,7.9,4.3,0.00014,0.00020,34.2,34.6,20,17,.,.,8.52,0.00,0.00
15min,AgWx,beryljct,423,28JAN2020:18:00:00,43.3,13.07,40.4,40.8,41.2,42.2,39.6,56,59,50,0.486,26.6,27.8,25.1,3.617,4.0,263,14,4.8,0.00010,0.00015,34.3,34.6,20,5,.,.,8.52,0.00,0.00
15min,AgWx,beryljct,423,28JAN2020:18:15:00,41.5,13.05,40.8,40.6,40.3,41.7,38.2,56,60,54,0.468,26.0,27.2,24.7,4.012,3.0,208,50,4.5,0.00004,0.00007,34.4,34.6,20,1,.,.,8.53,0.00,0.00
15min,AgWx,beryljct,423,28JAN2020:18:30:00,40.2,13.02,39.7,39.4,40.6,42.7,38.8,56,59,52,0.487,26.0,26.7,24.1,3.113,2.6,277,12,4.0,0.00002,0.00005,34.4,34.6,20,0,.,.,8.52,0.00,0.00
15min,AgWx,beryljct,423,28JAN2020:18:45:00,39.0,13.01,39.4,37.8,38.3,40.3,36.8,60,62,58,0.453,25.7,27.6,23.9,2.85,3.7,194,33,6.1,0.00005,0.00009,34.4,34.6,20,0,.,.,8.53,0.00,0.00
15min,AgWx,beryljct,423,28JAN2020:19:00:00,37.7,13,34.1,34.4,36.0,38.2,34.3,60,63,56,0.425,23.5,25.0,22.8,1.929,2.8,191,23,6.0,0.00001,0.00003,34.4,34.6,20,0,.,.,8.53,0.00,0.00
15min,AgWx,beryljct,423,28JAN2020:19:15:00,36.5,12.98,33.2,35.3,34.3,35.8,33.0,65,68,62,0.446,23.9,24.6,23.1,0.044,3.1,219,21,5.0,0.00000,0.00002,34.4,34.7,20,0,.,.,8.53,0.00,0.00
15min,AgWx,beryljct,423,28JAN2020:19:30:00,35.9,12.98,34.9,35.8,36.4,37.8,34.7,62,65,60,0.456,24.6,25.5,23.9,0,1.5,27,25,3.0,-0.00008,-0.00009,34.3,34.7,20,0,.,.,8.53,0.00,0.00
15min,AgWx,beryljct,423,28JAN2020:19:45:00,35.5,12.97,36.9,36.6,36.5,37.7,35.6,67,68,64,0.492,26.4,27.3,24.9,1.556,1.0,309,35,3.0,-0.00012,-0.00016,34.3,34.7,20,0,.,.,8.53,0.00,0.00
15min,AgWx,beryljct,423,28JAN2020:20:00:00,35.4,12.96,35.5,34.3,36.4,38.0,34.1,69,73,67,0.488,27.2,28.5,25.7,3.398,2.4,41,82,4.1,-0.00004,-0.00003,34.2,34.7,20,0,.,.,8.53,0.00,0.00
15min,AgWx,beryljct,423,28JAN2020:20:15:00,34.8,12.94,31.9,32.7,33.4,34.8,32.3,74,77,72,0.463,26.1,27.0,25.0,1.381,2.6,106,28,4.1,-0.00004,-0.00004,34.2,34.7,20,0,.,.,8.54,0.00,0.00
15min,AgWx,beryljct,423,28JAN2020:20:30:00,33.8,12.94,32.8,32.8,33.2,34.9,32.0,75,78,71,0.473,26.2,27.6,23.8,3.266,1.4,102,34,3.3,-0.00010,-0.00012,34.1,34.7,20,0,.,.,8.54,0.00,0.00
15min,AgWx,beryljct,423,28JAN2020:20:45:00,32.8,12.93,32.8,31.5,31.5,32.8,30.4,74,76,71,0.436,24.0,25.8,22.8,2.346,2.7,203,24,4.0,-0.00004,-0.00003,34.1,34.8,20,0,.,.,8.54,0.00,0.00
15min,AgWx,beryljct,423,28JAN2020:21:00:00,31.8,12.92,29.1,30.3,31.3,33.3,29.9,75,79,72,0.439,24.4,26.5,22.7,0.658,2.7,249,8.1,3.9,-0.00004,-0.00004,34.1,34.8,20,0,.,.,8.54,0.00,0.00
15min,AgWx,beryljct,423,28JAN2020:21:15:00,31.1,12.91,27.2,28.6,31.5,35.5,28.4,75,80,66,0.426,24.5,27.4,20.7,1.293,1.6,197,45,4.4,-0.00008,-0.00010,34.0,34.8,20,0,.,.,8.54,0.00,0.00
15min,AgWx,beryljct,423,28JAN2020:21:30:00,30.2,12.88,29.5,28.2,27.9,29.1,26.6,81,84,78,0.437,22.8,24.2,21.6,2.631,2.1,178,26,4.5,-0.00007,-0.00008,34.0,34.8,20,0,.,.,8.55,0.01,0.00
15min,AgWx,beryljct,423,28JAN2020:21:45:00,29.4,12.89,27.3,26.7,28.4,29.9,26.6,80,84,77,0.396,23.0,24.3,21.0,1.162,2.8,176,18,5.4,-0.00005,-0.00005,34.0,34.8,20,0,.,.,8.55,0.00,0.00
15min,AgWx,beryljct,423,28JAN2020:22:00:00,28.4,12.88,24.7,25.0,25.8,27.2,24.7,83,86,80,0.389,21.3,22.2,20.6,3.332,2.1,144,27,4.7,-0.00007,-0.00008,33.9,34.8,20,0,.,.,8.55,0.01,0.00
15min,AgWx,beryljct,423,28JAN2020:22:15:00,27.5,12.86,27.1,27.0,25.7,27.1,24.3,84,87,81,0.404,21.7,22.5,20.4,2.609,3.1,167,15,3.9,-0.00005,-0.00005,33.9,34.8,20,0,.,.,8.55,0.00,0.00
15min,AgWx,beryljct,423,28JAN2020:22:30:00,26.8,12.85,24.4,23.7,24.7,27.1,23.7,84,88,81,0.382,20.6,22.0,19.8,3.113,4.6,197,11,6.1,-0.00002,-0.00002,33.9,34.8,20,0,.,.,8.55,0.01,0.00
15min,AgWx,beryljct,423,28JAN2020:22:45:00,26.2,12.85,25.9,25.2,24.4,25.2,23.5,88,89,86,0.396,21.3,22.0,20.3,0.592,0.9,145,66,3.0,-0.00011,-0.00016,33.8,34.8,20,0,.,.,8.55,0.00,0.00
15min,AgWx,beryljct,423,28JAN2020:23:00:00,25.7,12.85,22.3,23.5,25.2,26.6,23.5,85,87,82,0.361,21.2,23.0,19.3,3.814,1.8,63,29,3.8,-0.00008,-0.00010,33.8,34.8,20,0,.,.,8.55,0.00,0.00
15min,AgWx,beryljct,423,28JAN2020:23:15:00,25.2,12.84,22.3,22.2,23.0,23.4,22.2,88,89,84,0.357,19.8,20.5,18.8,3.749,3.0,320,6.5,4.6,-0.00005,-0.00006,33.8,34.8,20,0,.,.,8.55,0.00,0.00
15min,AgWx,beryljct,423,28JAN2020:23:30:00,24.7,12.82,20.8,22.6,22.0,22.9,20.8,89,91,87,0.376,19.2,20.4,17.8,1.907,3.0,13,26,4.1,-0.00005,-0.00006,33.7,34.8,20,0,.,.,8.55,0.00,0.00
15min,AgWx,bigpiney,439,28JAN2020:00:00:00,12.9,12.66,9.7,9.8,10.5,15.2,8.1,81,86,71,0.198,5.8,11.1,0.7,5.217,3.2,30,62,6.4,-0.00003,-0.00003,29.4,30.3,11,0,0,0.0,5.72,0.00,0.00
15min,AgWx,bigpiney,439,28JAN2020:00:15:00,12.4,12.65,10.5,9.9,10.5,13.6,8.8,84,88,79,0.202,6.4,10.1,4.4,2.762,2.7,301,51,6.5,-0.00004,-0.00005,29.4,30.3,11,0,0,0.0,5.72,0.00,0.00
15min,AgWx,bigpiney,439,28JAN2020:00:30:00,11.9,12.64,8.4,6.5,8.1,10.1,4.4,85,89,81,0.177,4.5,6.5,-0.0,4.516,3.5,231,29,7.8,-0.00003,-0.00003,29.4,30.3,11,0,0,0.0,5.72,0.00,0.00
15min,AgWx,bigpiney,439,28JAN2020:00:45:00,10.9,12.64,2.2,3.6,4.6,7.1,2.6,86,92,83,0.153,1.4,5.1,-1.5,6.883,4.9,221,7.5,7.0,-0.00002,-0.00002,29.4,30.3,11,0,0,0.0,5.72,0.00,0.00
15min,AgWx,bigpiney,439,28JAN2020:01:00:00,9.5,12.63,4.2,5.9,3.1,6.2,-0.2,87,93,82,0.185,-0.0,4.2,-4.5,5.656,6.4,233,11,8.2,-0.00001,-0.00001,29.3,30.4,11,0,0,0.0,5.72,0.00,0.00
15min,AgWx,bigpiney,439,28JAN2020:01:15:00,8.2,12.62,6.5,5.0,3.5,5.6,0.7,87,92,83,0.169,0.5,3.8,-3.2,2.105,3.5,258,29,8.9,-0.00003,-0.00003,29.3,30.4,11,0,0,0.0,5.72,0.00,0.00
15min,AgWx,bigpiney,439,28JAN2020:01:30:00,7.6,12.62,0.0,3.3,6.2,7.8,3.3,88,91,84,0.148,3.5,5.6,-0.5,5.634,1.3,255,21,5.7,-0.00007,-0.00009,29.3,30.4,11,0,0,0.0,5.72,0.00,0.00
15min,AgWx,bigpiney,439,28JAN2020:01:45:00,6.9,12.6,3.6,2.9,1.2,4.5,-1.0,86,90,83,0.156,-2.1,1.9,-4.8,6.555,6.0,221,11,8.1,-0.00001,-0.00001,29.3,30.4,11,0,0,0.0,5.72,0.00,0.00
15min,AgWx,bigpiney,439,28JAN2020:02:00:00,6.1,12.6,9.6,11.1,6.5,11.1,2.6,89,93,82,0.236,4.0,9.6,-1.1,3.771,5.9,239,6.9,9.0,-0.00002,-0.00002,29.3,30.4,11,0,0,0.0,5.72,0.00,0.00
15min,AgWx,bigpiney,439,28JAN2020:02:15:00,5.8,12.6,2.9,5.3,5.2,10.8,2.8,86,93,82,0.170,1.9,9.0,-1.2,2.74,4.4,285,63,8.7,-0.00002,-0.00002,29.3,30.3,11,0,0,0.0,5.72,0.00,0.00
15min,AgWx,bigpiney,439,28JAN2020:02:30:00,5.7,12.59,4.1,3.0,6.3,8.4,3.0,89,94,84,0.147,3.7,7.0,-0.7,6.401,3.0,291,48,7.7,-0.00004,-0.00005,29.3,30.4,11,0,0,0.0,5.72,0.00,0.00
15min,AgWx,bigpiney,439,28JAN2020:02:45:00,5.6,12.58,10.9,5.9,3.7,5.9,1.9,86,90,83,0.179,0.4,3.5,-2.1,3.201,6.0,212,16,8.3,-0.00001,-0.00001,29.3,30.4,11,0,0,0.0,5.72,0.00,0.00
15min,AgWx,bigpiney,439,28JAN2020:03:00:00,5.4,12.57,1.9,-0.3,2.2,8.1,-1.2,85,93,80,0.126,-1.3,6.3,-5.5,6.533,5.2,213,31,7.2,-0.00001,-0.00001,29.3,30.4,11,0,0,0.0,5.72,0.00,0.00
15min,AgWx,bigpiney,439,28JAN2020:03:15:00,5.0,12.56,1.8,0.6,0.3,2.6,-1.9,85,88,83,0.135,-3.1,-0.3,-5.7,5.744,5.5,235,16,7.7,-0.00001,-0.00001,29.3,30.4,11,0,0,0.0,5.72,0.00,0.00
15min,AgWx,bigpiney,439,28JAN2020:03:30:00,4.5,12.55,4.7,3.3,2.6,7.4,-0.7,88,93,83,0.147,-0.3,5.5,-4.3,6.686,4.8,256,22,7.2,-0.00002,-0.00002,29.3,30.4,11,0,0,0.0,5.72,0.00,0.00
15min,AgWx,bigpiney,439,28JAN2020:03:45:00,4.2,12.55,0.9,0.8,4.3,8.4,0.8,86,91,83,0.131,1.1,6.2,-3.1,2.433,4.9,242,41,9.3,-0.00002,-0.00002,29.3,30.4,11,0,0,0.0,5.72,0.00,0.00
15min,AgWx,bigpiney,439,28JAN2020:04:00:00,4.2,12.54,3.4,3.3,4.2,6.1,0.7,86,88,82,0.148,0.9,3.3,-3.2,2.762,3.8,247,23,7.0,-0.00002,-0.00003,29.3,30.4,11,0,0,0.0,5.72,0.00,0.00
15min,AgWx,bigpiney,439,28JAN2020:04:15:00,4.4,12.52,11.5,10.4,6.1,10.4,2.4,86,91,77,0.215,2.7,7.6,-3.0,0.921,3.0,244,15,5.8,-0.00003,-0.00004,29.3,30.4,11,0,0,0.0,5.72,0.00,0.00
15min,AgWx,bigpiney,439,28JAN2020:04:30:00,4.6,12.52,0.4,-0.1,4.1,12.1,-0.4,81,88,74,0.124,-0.6,8.4,-4.8,6.84,3.3,250,39,7.2,-0.00002,-0.00002,29.3,30.4,11,0,0,0.0,5.72,0.00,0.00
15min,AgWx,bigpiney,439,28JAN2020:04:45:00,4.5,12.51,3.3,2.1,0.8,2.1,-0.7,83,85,82,0.141,-3.1,-1.6,-4.9,4.801,7.0,217,12,9.6,-0.00000,0.00000,29.3,30.4,11,0,0,0.0,5.72,0.00,0.00
15min,AgWx,bigpiney,439,28JAN2020:05:00:00,4.4,12.51,4.8,4.1,2.5,4.9,1.1,83,85,82,0.150,-1.5,1.2,-3.2,4.582,5.3,264,11,7.9,-0.00001,-0.00001,29.3,30.4,11,0,0,0.0,5.72,0.00,0.00
15min,AgWx,bigpiney,439,28JAN2020:05:15:00,4.6,12.49,2.9,3.4,4.5,5.8,3.1,82,84,79,0.142,0.1,1.9,-2.1,5.919,5.4,216,33,10.3,-0.00001,-0.00000,29.3,30.4,11,0,0,0.0,5.72,0.00,0.00
15min,AgWx,bigpiney,439,28JAN2020:05:30:00,4.8,12.49,5.4,9.7,4.3,10.1,1.6,82,88,80,0.193,0.1,6.1,-3.2,6.292,6.5,235,6.3,7.7,-0.00000,0.00000,29.3,30.4,11,0,0,0.0,5.72,0.00,0.00
15min,AgWx,bigpiney,439,28JAN2020:05:45:00,4.8,12.49,2.8,3.3,4.3,8.9,1.2,80,84,74,0.144,-0.7,4.0,-5.0,1.491,3.2,218,48,6.2,-0.00002,-0.00002,29.3,30.4,11,0,0,0.0,5.72,0.00,0.00
15min,AgWx,bigpiney,439,28JAN2020:06:00:00,4.6,12.48,-2.6,-3.2,-1.9,3.2,-4.4,81,86,79,0.112,-6.2,-1.3,-8.6,1.359,1.8,322,37,4.3,-0.00004,-0.00004,29.3,30.4,11,0,0,0.0,5.72,0.00,0.00
15min,AgWx,bigpiney,439,28JAN2020:06:15:00,3.9,12.47,-1.1,-0.7,-2.0,-0.6,-3.2,87,88,86,0.128,-5.0,-3.3,-6.4,4.494,2.2,274,26,4.5,-0.00003,-0.00004,29.2,30.4,11,0,0,0.0,5.72,0.00,0.00
15min,AgWx,bigpiney,439,28JAN2020:06:30:00,3.1,12.46,0.5,0.2,-0.4,1.2,-2.5,87,90,84,0.133,-3.4,-1.1,-6.2,0.833,1.7,333,51,8.4,-0.00004,-0.00005,29.2,30.4,11,0,0,0.0,5.72,0.00,0.00
15min,AgWx,bigpiney,439,28JAN2020:06:45:00,2.5,12.46,0.5,0.2,-0.1,0.5,-0.7,87,88,86,0.132,-3.1,-2.3,-3.9,3.946,2.2,291,31,5.1,-0.00004,-0.00005,29.2,30.4,11,0,0,0.0,5.72,0.00,0.00
15min,AgWx,bigpiney,439,28JAN2020:07:00:00,2.1,12.44,2.7,1.9,-0.2,2.1,-4.2,87,90,81,0.147,-3.3,-0.3,-8.6,3.135,4.0,279,16,7.3,-0.00002,-0.00002,29.2,30.3,11,0,0,0.0,5.72,0.00,0.00
15min,AgWx,bigpiney,439,28JAN2020:07:15:00,1.9,12.44,4.7,3.8,2.6,3.8,0.8,88,90,86,0.159,-0.1,1.0,-2.4,1.973,1.8,268,35,3.7,-0.00005,-0.00006,29.2,30.4,11,0,0,0.0,5.72,0.00,0.00
15min,AgWx,bigpiney,439,28JAN2020:07:30:00,2.1,12.45,6.1,5.4,4.4,5.4,2.9,88,89,86,0.171,1.6,2.8,-0.3,1.008,1.4,241,14,3.7,-0.00006,-0.00008,29.2,30.4,11,1,0,0.0,5.72,0.00,0.00
15min,AgWx,bigpiney,439,28JAN2020:07:45:00,2.5,12.54,4.0,3.4,3.5,5.5,1.0,87,90,83,0.157,0.5,2.7,-2.9,2.061,2.1,318,67,4.1,-0.00004,-0.00005,29.2,30.4,11,6,0,0.0,5.72,0.00,0.00
15min,AgWx,bigpiney,439,28JAN2020:08:00:00,2.6,15.02,-1.3,-0.4,1.3,3.4,-0.4,86,89,83,0.126,-1.8,0.8,-4.1,4.516,3.2,287,35,4.6,-0.00007,-0.00006,29.2,30.4,11,32,0,0.0,5.72,0.00,0.00
15min,AgWx,bigpiney,439,28JAN2020:08:15:00,2.7,14.98,2.0,1.6,-0.2,2.5,-3.0,86,90,82,0.146,-3.3,0.4,-7.0,2.696,2.8,235,21,4.7,-0.00003,-0.00001,29.2,30.4,11,60,0,0.0,5.72,0.00,0.00
15min,AgWx,bigpiney,439,28JAN2020:08:30:00,2.9,14.99,0.3,-0.2,0.7,4.2,-1.2,86,90,82,0.127,-2.6,1.8,-5.4,5.152,5.2,222,4.6,6.7,0.00005,0.00008,29.1,30.4,11,100,0,0.0,5.72,0.00,0.00